Weather History for Poplar Bluff, MO

Change the Weather History Date:

Monday, April 22, 2013

  Actual Average Record
Temperature  
Mean Temperature 58 °F -  
Max Temperature 73 °F 70 °F 89 °F (1919)
Min Temperature 45 °F 48 °F 27 °F (1927)
Degree Days  
Heating Degree Days 6    
Growing Degree Days 8 (Base 50)    
Moisture  
Dew Point 46 °F    
Average Humidity 64    
Maximum Humidity 87    
Minimum Humidity 40    
Precipitation  
Precipitation 0.00 in - - ()
Sea Level Pressure  
Sea Level Pressure 30.13 in    
Wind  
Wind Speed 5 mph (East)    
Max Wind Speed 14 mph    
Max Gust Speed 23 mph    
Visibility 10 miles    
Events      
Averages and records for this station are not official NWS values.
T = Trace of Precipitation, MM = Missing Value Source: NWS Daily Summary

Daily Weather History Graph

Daily Weather History Graph

Search for Another Location

Airport:

Trip Planner

Search our weather history database for the weather conditions in past years. The results will help you decide how hot, cold, wet, or windy it might be!

Date:

Astronomy

Apr. 22, 2013 Rise Set
Actual Time 6:17 AM CDT 7:42 PM CDT
Civil Twilight 5:50 AM CDT 8:09 PM CDT
Nautical Twilight 5:18 AM CDT 8:42 PM CDT
Astronomical Twilight 4:44 AM CDT 9:16 PM CDT
Moon 4:35 PM CDT (4/22) 4:07 AM CDT (4/22)
Length of Visible Light 14h 18m
Length of Day
13h 24m
Waxing Gibbous, 88% of the Moon is Illuminated
Apr 22
Waxing Gibbous
Apr 25
Full
May 2
Last Quarter
May 9
New
May 17
First Quarter

Hourly Weather History & Observations

Time (CDT) Temp. Windchill Dew Point Humidity Pressure Visibility Wind Dir Wind Speed Gust Speed Precip Events Conditions
12:53 AM 48.9 °F - 41.0 °F 74% 30.25 in 10.0 mi NE 4.6 mph - N/A   Clear
1:53 AM 48.9 °F - 41.0 °F 74% 30.23 in 10.0 mi NE 4.6 mph - N/A   Clear
2:53 AM 46.9 °F - 41.0 °F 80% 30.22 in 10.0 mi North 3.5 mph - N/A   Clear
3:53 AM 45.0 °F 43.5 °F 39.9 °F 82% 30.21 in 10.0 mi NNE 3.5 mph - N/A   Clear
4:53 AM 45.0 °F 43.5 °F 37.9 °F 76% 30.20 in 10.0 mi North 3.5 mph - N/A   Clear
5:53 AM 45.0 °F 43.5 °F 37.9 °F 76% 30.19 in 10.0 mi NE 3.5 mph - N/A   Clear
6:53 AM 46.9 °F - 39.0 °F 74% 30.20 in 10.0 mi NNE 3.5 mph - N/A   Clear
7:53 AM 50.0 °F - 39.9 °F 68% 30.21 in 10.0 mi NE 3.5 mph - N/A   Clear
8:53 AM 55.0 °F - 42.1 °F 62% 30.21 in 10.0 mi ENE 3.5 mph - N/A   Clear
9:53 AM 60.1 °F - 44.1 °F 55% 30.20 in 10.0 mi East 3.5 mph - N/A   Clear
10:53 AM 63.0 °F - 46.9 °F 56% 30.20 in 10.0 mi Variable 4.6 mph - N/A   Clear
11:53 AM 66.0 °F - 48.0 °F 52% 30.17 in 10.0 mi SSE 6.9 mph - N/A   Clear
12:53 PM 69.1 °F - 50.0 °F 51% 30.14 in 10.0 mi SSE 9.2 mph - N/A   Clear
1:53 PM 71.1 °F - 51.1 °F 49% 30.12 in 10.0 mi SSE 8.1 mph - N/A   Clear
2:53 PM 71.1 °F - 50.0 °F 47% 30.10 in 10.0 mi SSE 8.1 mph - N/A   Scattered Clouds
3:53 PM 72.0 °F - 48.0 °F 43% 30.06 in 10.0 mi South 11.5 mph - N/A   Partly Cloudy
4:53 PM 72.0 °F - 46.0 °F 40% 30.04 in 10.0 mi SSE 13.8 mph 23.0 mph N/A   Clear
5:53 PM 70.0 °F - 46.9 °F 44% 30.03 in 10.0 mi South 10.4 mph - N/A   Clear
6:53 PM 68.0 °F - 51.1 °F 55% 30.01 in 10.0 mi SSE 5.8 mph - N/A   Clear
7:53 PM 64.9 °F - 50.0 °F 58% 30.01 in 10.0 mi South 3.5 mph - N/A   Clear
8:53 PM 63.0 °F - 53.1 °F 70% 30.04 in 10.0 mi Calm Calm - N/A   Clear
9:53 PM 62.1 °F - 52.0 °F 70% 30.03 in 10.0 mi Calm Calm - N/A   Partly Cloudy
10:53 PM 57.9 °F - 54.0 °F 87% 30.04 in 10.0 mi SSE 3.5 mph - N/A   Clear
11:53 PM 57.0 °F - 53.1 °F 87% 30.05 in 10.0 mi North 4.6 mph - N/A   Partly Cloudy